Regional Weather Roundup
Issued by NWS

Home | Current Version | Previous Version | Graphics & Text | Print | Product List | Glossary Off
Versions: 1 2 3 4 5 6 7 8 9 10 11 12 13 14 15 16 17 18 19 20 21 22 23 24 25 26 27 28 29 30 31 32 33 34 35 36 37 38 39 40 41 42 43 44 45 46 47 48

000
ASUS43 KDMX 250407
RWRIA

WEATHER ROUNDUP FOR IOWA
NATIONAL WEATHER SERVICE DES MOINES IA
1100 PM CDT THU JUL 24 2014

NOTE: "FAIR" INDICATES FEW OR NO CLOUDS BELOW 12,000 FEET WITH NO
SIGNIFICANT WEATHER AND/OR OBSTRUCTIONS TO VISIBILITY.

* - THESE STATIONS ARE NOT NWS STATIONS...THUS NOT UNDER NWS
QUALITY CONTROL.  THEY ALSO DO NOT REPORT WEATHER SUCH
AS PRECIPITATION OR FOG.

IAZ001>003-012>014-020>022-031>034-043>046-250500-
   NORTHWEST IOWA

CITY           SKY/WX    TMP DP  RH WIND       PRES   REMARKS
CARROLL *      CLOUDY    68  61  77 S14       29.90R
CHEROKEE *     PTCLDY    70  63  78 S12G18    29.87S
DENISON *      MOCLDY    70  61  73 S14G24    29.86F
LE MARS *      CLEAR     72  63  73 S13G23    29.83F
ORANGE CITY *  PTCLDY    70  59  68 S12G17    29.83F
SHELDON *      PTCLDY    66  63  88 SE10      29.85F
SIOUX CITY     PTCLDY    74  61  63 S13G22    29.84S
SPENCER        CLEAR     63  60  90 SE9       29.89F
STORM LAKE *   CLEAR     68  63  83 S13G18    29.90S
$$

IAZ055>058-069>071-079>083-090>094-250500-
   SOUTHWEST IOWA

CITY           SKY/WX    TMP DP  RH WIND       PRES   REMARKS
ATLANTIC *     PTCLDY    70  61  73 S15G21    29.89F
AUDUBON *      CLEAR     72  64  78 S13G20    29.90F
CLARINDA *     CLEAR     70  63  78 S10G16    29.93F
COUNCIL BLFS *   N/A     72  63  73 S18G24    29.88F
CRESTON *      CLEAR     68  61  77 S15G22    29.93F
HARLAN  *      CLEAR     72  61  68 S16       29.91F
LAMONI         PTCLDY    69  60  73 S13       29.96F
RED OAK *      CLEAR     72  61  68 S13G20    29.91F
SHENANDOAH *   CLEAR     72  61  68 SE13G20   29.91F
$$

IAZ047>049-059>061-072>074-084-250500-
   CENTRAL IOWA

CITY           SKY/WX    TMP DP  RH WIND       PRES   REMARKS
AMES           CLEAR     64  60  87 SE6       29.93S
ANKENY *       CLEAR     70  61  73 SE6       29.93R
CHARITON *     MOCLDY    70  61  73 S15       29.93F
DES MOINES     PTCLDY    72  59  63 S10       29.91R
GRINNELL*      CLEAR     66  59  77 SE6       29.98S
KNOXVILLE *    PTCLDY    70  57  64 SE7       29.94R
MARSHALLTOWN   CLEAR     65  61  87 SE9       29.96R
PELLA *        CLEAR     66  61  82 SE3       29.98R
PERRY *          N/A     66  61  82 SE5       29.91R
$$

IAZ004>006-015-016-023>025-035-036-250500-
   NORTH CENTRAL IOWA

CITY           SKY/WX    TMP DP  RH WIND       PRES   REMARKS
ALGONA *       CLEAR     63  61  94 SE6       29.94S
CLARION *      CLEAR     64  63  94 SE7       29.94S
ESTHERVILLE    PTCLDY    60  59  96 SE8       29.92S
FORT DODGE *   CLEAR     63  61  94 SE6       29.94S
MASON CITY     CLEAR     61  60  97 E6        29.98R
FOREST CITY *  CLEAR     63  63 100 E6        29.96R
IOWA FALLS *     N/A     64  61  88 SE6       29.96S
$$

IAZ007>011-017>019-026>030-037>042-050>054-066-250500-
   NORTHEAST IOWA

CITY           SKY/WX    TMP DP  RH WIND       PRES   REMARKS
CEDAR RAPIDS   CLEAR     67  58  72 S8        29.99R
CHARLES CITY * CLEAR     66  61  82 SE6       29.99S
CLINTON *      MOCLDY    66  55  68 S6        30.04R
DECORAH *      CLEAR     64  59  82 CALM      30.00R
DUBUQUE        PTCLDY    63  58  83 S10       30.00S
MONTICELLO *   CLEAR     64  61  88 SE7       29.99R
OELWEIN *      CLEAR     64  59  82 S6        30.01R
WATERLOO       CLEAR     68  59  73 S10       29.96R
$$

IAZ064-065-067-068-078-250500-
   EAST CENTRAL IOWA

CITY           SKY/WX    TMP DP  RH WIND       PRES   REMARKS
DAVENPORT      MOCLDY    64  56  75 S8        30.01S
IOWA CITY      CLEAR     66  60  81 S5        30.00S
MT. PLEASANT * PTCLDY    63  59  88 SE6       30.00F
MUSCATINE *    CLEAR     68  59  73 S6        30.00F
QUAD CITIES    CLOUDY    65  57  75 S8        30.00F
$$

IAZ062-063-075>077-085>089-095>099-250500-
   SOUTHEAST IOWA

CITY           SKY/WX    TMP DP  RH WIND       PRES   REMARKS
BURLINGTON     MOCLDY    66  57  72 S5        30.01R
FAIRFIELD *    CLEAR     64  57  77 E5        30.00R
FORT MADISON * CLEAR     66  59  77 SE6       30.02S
KEOKUK *       CLEAR     68  57  68 SE7       30.00R
OSKALOOSA *      N/A     64  61  88 SE7       29.99R
CENTERVILLE *  CLEAR     66  61  82 S7        29.97F
OTTUMWA        CLEAR     65  58  78 SE6       29.98R
WASHINGTON *   CLEAR     64  59  82 SE7       30.00S
$$

ABBREVIATIONS USED IN REMARKS
   TC - TEMPERATURES IN CELSIUS
  WCI - WIND CHILL INDEX
   HX - HEAT INDEX
  VSB - VISIBILITY
$$




USA.gov is the U.S. government's official web portal to all federal, state and local government web resources and services.